Погода в Митяеве

Россия / Калужская область     55°16′11″N   36°31′53″E
темп.,
°C
ветер,
м/с
пор.,
м/с
влажн.,
%
обл.,
%
осадки,
мм/ч
давл.,
гПа
погр.,
м
5 марта, пт
пт500:00−5сз2494100 0.0 1003113
03:00−7сз239567 0.0 100562
06:00−9зсз23960 0.0 100783
09:00−7зсз37910 0.0 1008304
12:00−3зсз467665 0.0 10091048
15:00−2зсз357082 0.1 10111244
18:00−6з238533 0.1 101250
21:00−8зсз238917 0.1 101425
6 марта, сб
сб600:00−9сз229154 0.0 101521
03:00−10сз229159 0.0 101623
06:00−12сз239425 0.0 101660
09:00−9сз258912 0.0 1017207
12:00−5зсз357625 0.0 1018912
15:00−4зсз467463 0.2 10161074
18:00−7з2584100 0.2 1016120
21:00−10зюз358962 0.2 101697
7 марта, вс
вс700:00−10юз499122 0.0 1013230
03:00−8юз5138355 0.0 1009584
06:00−7юз71582100 0.0 1005786
09:00−6юз81591100 0.3 10001046
12:00−3юз91791100 1.0 9931289
15:00−3з91579100 2.9 9931148
18:00−5зсз61468100 0.3 9961268
21:00−6зюз6157450 0.3 998835
8 марта, пн
пн800:00−6зюз5137660 0.0 995869
03:00−6зюз4119580 0.3 995731
06:00−8сз71187100 1.3 996933
09:00−10зсз71284100 1.3 999994
12:00−7зсз6117397 0.2 10021101
15:00−6зсз7117899 0.3 10031342
18:00−7сз51089100 0.2 1005835
21:00−10зсз3109191 0.2 1009335
9 марта, вт
вт900:00−11сз389456 0.0 1011343
03:00−13сз389475 0.1 1013327
06:00−16ссз389494 0.0 1014336
09:00−15ссз489096 0.1 1016435
12:00−12сз3683100 0.0 1017523
15:00−10сз357476 0.0 1017679
18:00−12зсз228751 0.0 101756
21:00−12юз229175 0.0 101750